Bpl Ju Pass 54811 Schedule, Route, Map - Bhopal to Jodhpur train
Must See India - Best Travel Guide to India
Home   |   Login   |   Register   |   Contact Us
 

Bpl Ju Pass (54811)

Print
     

Service Days:

All Days

Classes:

First Class (FC), Sleeper (SL)

Duration:

26h 50m

Station Arrival Departure Stop Time Distance Day
1 Bhopal (BPL) starts 04:10 pm Starts 0 km 1
2 Sukhisewaniyan (SUW) 04:23 pm 04:25 pm 2 min 12 km 1
3 Bhadbhadaghat (BVB) 04:33 pm 04:35 pm 2 min 19 km 1
4 Dewanganj (DWG) 04:43 pm 04:45 pm 2 min 28 km 1
5 Salamatpur (SMT) 04:53 pm 04:55 pm 2 min 37 km 1
6 Sanchi (SCI) 05:03 pm 05:05 pm 2 min 45 km 1
7 Vidisha (BHS) 05:13 pm 05:15 pm 2 min 54 km 1
8 Sumer (SUMR) 05:28 pm 05:30 pm 2 min 68 km 1
9 Gulabhganj (GLG) 05:38 pm 05:40 pm 2 min 75 km 1
10 Pabai (PAI) 06:00 pm 06:02 pm 2 min 85 km 1
11 Ganj Basoda (BAQ) 06:13 pm 06:15 pm 2 min 93 km 1
12 Bareth (BET) 06:23 pm 06:25 pm 2 min 103 km 1
13 Kalhar (KAH) 06:33 pm 06:35 pm 2 min 113 km 1
14 Mandi Bamora (MABA) 06:43 pm 06:45 pm 2 min 122 km 1
15 Kurwai Kethora (KIKA) 06:53 pm 06:55 pm 2 min 129 km 1
16 Bina Jn (BINA) 07:35 pm 07:45 pm 10 min 139 km 1
17 Mahadeokhedi (MDVK) 07:55 pm 07:57 pm 2 min 145 km 1
18 Semarkheri (SRKI) 08:04 pm 08:06 pm 2 min 152 km 1
19 Mungaoli (MNV) 08:26 pm 08:28 pm 2 min 167 km 1
20 Guneru Bamori (GVB) 08:39 pm 08:41 pm 2 min 176 km 1
21 Pipraigaon (PIA) 08:52 pm 08:54 pm 2 min 187 km 1
22 Orr (ORR) 09:06 pm 09:08 pm 2 min 201 km 1
23 Ashok Nagar (ASKN) 09:22 pm 09:24 pm 2 min 213 km 1
24 Shadhoragaon (SHDR) 09:43 pm 09:45 pm 2 min 228 km 1
25 Pagara (PGA) 09:58 pm 10:00 pm 2 min 244 km 1
26 Guna (GUNA) 10:25 pm 10:35 pm 10 min 257 km 1
27 Mahugarha (MUGA) 10:45 pm 10:47 pm 2 min 265 km 1
28 Ruthiyai (RTA) 11:15 pm 11:20 pm 5 min 278 km 1
29 Chhabra Gugor (CAG) 11:59 pm 12:01 am 2 min 317 km 1
30 Salpura (SYL) 12:13 am 12:15 am 2 min 332 km 2
31 Atru (ATRU) 12:28 am 12:30 am 2 min 346 km 2
32 Baran (BAZ) 12:50 am 12:55 am 5 min 376 km 2
33 Antah (ATH) 01:18 am 01:20 am 2 min 397 km 2
34 Kota (KOTA) 02:42 am 03:10 am 28 min 442 km 2
35 Keshorai Patan (KPTN) 03:28 am 03:30 am 2 min 455 km 2
36 Kapren (KPZ) 03:45 am 03:47 am 2 min 475 km 2
37 Lakheri (LKE) 04:05 am 04:07 am 2 min 503 km 2
38 Indargarh (IDG) 04:16 am 04:18 am 2 min 513 km 2
39 Amli (AMLI) 04:26 am 04:28 am 2 min 526 km 2
40 Rawania Dungar (RWJ) 04:33 am 04:35 am 2 min 534 km 2
41 Sawai Madhopur (SWM) 05:30 am 05:50 am 20 min 550 km 2
42 Devpura (DPZ) 06:03 am 06:05 am 2 min 561 km 2
43 Chauth Ka Brwra (CKB) 06:14 am 06:16 am 2 min 572 km 2
44 Sureli (SURL) 06:24 am 06:26 am 2 min 581 km 2
45 Isarda (ISA) 06:34 am 06:36 am 2 min 589 km 2
46 Siras (SRAS) 07:20 am 07:22 am 2 min 600 km 2
47 Bansthali Niwai (BNLW) 07:34 am 07:36 am 2 min 615 km 2
48 Channani (CHNN) 07:49 am 07:51 am 2 min 628 km 2
49 Chaksu (CKS) 08:04 am 08:06 am 2 min 639 km 2
50 Shdspra Padmpra (SAS) 08:16 am 08:18 am 2 min 652 km 2
51 Sanganer (SNGN) 08:31 am 08:33 am 2 min 669 km 2
52 Durgapura (DPA) 08:39 am 08:41 am 2 min 674 km 2
53 Jaipur (JP) 09:10 am 09:25 am 15 min 681 km 2
55 Dhanakya (DNK) 09:48 am 09:50 am 2 min 700 km 2
56 Sheo Singh Pura (SHNX) 09:55 am 09:57 am 2 min 703 km 2
57 Bobas (BOBS) 10:04 am 10:06 am 2 min 710 km 2
58 Asalpur Jobner (JOB) 10:13 am 10:15 am 2 min 718 km 2
59 Dhinda (DHND) 10:21 am 10:23 am 2 min 723 km 2
60 Hirnoda (HDA) 10:28 am 10:30 am 2 min 727 km 2
61 Phulera Jn (FL) 11:35 am 11:43 am 8 min 736 km 2
62 Sambhar Lake (SBR) 11:50 am 11:52 am 2 min 743 km 2
63 Gudha (GA) 12:01 pm 12:03 pm 2 min 751 km 2
64 Govindi Marwar (GVMR) 12:13 pm 12:15 pm 2 min 762 km 2
65 Nawa City (NAC) 12:23 pm 12:25 pm 2 min 771 km 2
66 Naya Kharadia (NYK) 12:34 pm 12:36 pm 2 min 777 km 2
67 Thathana Mithri (THMR) 12:41 pm 12:43 pm 2 min 782 km 2
68 Kuchaman (KMNC) 12:48 pm 12:50 pm 2 min 787 km 2
69 Makrana (MKN) 01:10 pm 01:12 pm 2 min 801 km 2
70 Borawar (BOW) 01:21 pm 01:23 pm 2 min 807 km 2
71 Besroli (BSRL) 01:32 pm 01:34 pm 2 min 818 km 2
72 Gachhipura (GCH) 01:44 pm 01:46 pm 2 min 830 km 2
73 Degana Jn (DNA) 01:59 pm 02:01 pm 2 min 844 km 2
74 Jalsu Nanak (JACN) 02:10 pm 02:12 pm 2 min 852 km 2
75 Jalsu (JAC) 02:18 pm 02:20 pm 2 min 857 km 2
76 Ren (REN) 02:32 pm 02:34 pm 2 min 872 km 2
77 Kheduli (KQW) 02:41 pm 02:43 pm 2 min 879 km 2
78 Merta (MTD) 03:28 pm 03:45 pm 17 min 889 km 2
79 Jogi Magra (JOM) 03:53 pm 03:55 pm 2 min 900 km 2
80 Gotan (GOTN) 04:03 pm 04:05 pm 2 min 910 km 2
81 Kharia Khangarh (KXG) 04:19 pm 04:21 pm 2 min 916 km 2
82 Umed (UMED) 04:31 pm 04:33 pm 2 min 927 km 2
83 Sathin Road (SWF) 04:42 pm 04:44 pm 2 min 938 km 2
84 Pipar (PPR) 04:52 pm 04:54 pm 2 min 946 km 2
85 Kheri Salwa (KSW) 05:01 pm 05:03 pm 2 min 953 km 2
86 Asranada (AAS) 05:11 pm 05:13 pm 2 min 962 km 2
87 Jajiwal (JWL) 05:21 pm 05:23 pm 2 min 971 km 2
88 Banar (BNO) 05:30 pm 05:32 pm 2 min 979 km 2
89 Raika Bagh (RKB) 06:49 pm 06:51 pm 2 min 991 km 2
90 Jodhpur (JU) 07:00 pm ends Ends 993 km 2

 

 Click to view map

You can drag the map with your mouse, and double-click to zoom.

People who viewed this page also viewed

 
Agra Jaipur
 
Alibag honeymoon packages from Delhi
 
Alleppey packages from Hyderabad
 
Bandipur-national-park honeymoon packages from Pune
 
Bikaner packages from Pune
 
Dandeli packages from Kolkata
 
Gangtok packages from Delhi
 
Jaipur packages from Kolkata
 
Manali honeymoon packages from Bangalore
 
Mathura tour packages from Chennai
 
Pangong tour packages from Chennai
 
munnar tour packages from hyderabad
 

Destinations

 
 

More

 
debug_temp: train_route : train:2173:Bpl Ju Pass:Train